GW7700 Weather Reports


time (UTC)temp
F
wind
direction
speed
knots
gust
knots
rain 1hr
in
rain 24hr
in
rain mn
in
humidity
%
barometer
mb
20260906123201 76 278 11.3 13.0 0.00 0.00 0.00 36 1014.6
20260906122700 75 295 6.1 8.7 0.00 0.00 0.00 34 1014.2
20260906122200 76 301 10.4 12.2 0.00 0.00 0.00 33 1014.2
20260906121700 76 310 11.3 13.0 0.00 0.00 0.00 34 1014.6
20260906121200 76 216 13.9 18.2 0.00 0.00 0.00 33 1014.6
20260906120700 75 322 5.2 7.8 0.00 0.00 0.00 33 1014.2
20260906120201 75 283 9.6 12.2 0.00 0.00 0.00 34 1014.2
20260906115700 76 305 9.6 13.0 0.00 0.00 0.00 34 1014.6
20260906115200 75 312 10.4 13.9 0.00 0.00 0.00 35 1014.6
20260906114700 76 310 10.4 15.6 0.00 0.00 0.00 34 1014.6
20260906114201 76 336 7.8 11.3 0.00 0.00 0.00 35 1014.6
20260906113701 76 359 9.6 12.2 0.00 0.00 0.00 36 1014.6
20260906113200 76 275 12.2 15.6 0.00 0.00 0.00 36 1014.6
20260906112702 77 319 8.7 12.2 0.00 0.00 0.00 35 1014.6
20260906112200 76 306 9.6 12.2 0.00 0.00 0.00 36 1014.6
20260906111700 76 317 15.6 19.1 0.00 0.00 0.00 37 1014.6
20260906111202 76 333 11.3 17.4 0.00 0.00 0.00 36 1014.6
20260906110659 76 308 4.3 7.0 0.00 0.00 0.00 36 1014.6
20260906110200 76 280 13.0 15.6 0.00 0.00 0.00 35 1014.6
20260906105701 76 335 11.3 12.2 0.00 0.00 0.00 35 1014.6
20260906105200 77 323 7.8 12.2 0.00 0.00 0.00 35 1014.6
20260906104700 77 286 5.2 6.1 0.00 0.00 0.00 34 1014.6
20260906104200 76 286 8.7 12.2 0.00 0.00 0.00 35 1014.6
20260906103700 75 315 14.8 15.6 0.00 0.00 0.00 35 1014.6
20260906103200 75 307 8.7 8.7 0.00 0.00 0.00 36 1014.6
20260906102700 75 281 6.1 7.8 0.00 0.00 0.00 37 1014.6
20260906102200 75 296 11.3 19.1 0.00 0.00 0.00 37 1014.6
20260906101700 75 319 9.6 11.3 0.00 0.00 0.00 36 1014.6
20260906101200 75 291 5.2 7.8 0.00 0.00 0.00 38 1014.6
20260906100700 75 299 6.1 7.8 0.00 0.00 0.00 38 1014.9
20260906100201 75 318 9.6 12.2 0.00 0.00 0.00 37 1014.6
20260906095700 74 259 6.1 7.8 0.00 0.00 0.00 38 1014.9
20260906095200 74 285 11.3 13.9 0.00 0.00 0.00 37 1014.9
20260906094700 74 360 9.6 12.2 0.00 0.00 0.00 37 1014.6
20260906094200 75 339 9.6 11.3 0.00 0.00 0.00 36 1014.9
20260906093700 74 315 9.6 17.4 0.00 0.00 0.00 37 1014.6
20260906093200 74 314 12.2 15.6 0.00 0.00 0.00 38 1014.9
20260906092700 74 258 11.3 13.0 0.00 0.00 0.00 38 1014.9
20260906092200 73 358 6.1 7.8 0.00 0.00 0.00 39 1014.9
20260906091700 73 256 10.4 13.9 0.00 0.00 0.00 40 1014.9
20260906091200 73 304 13.0 18.2 0.00 0.00 0.00 39 1014.9
20260906090702 73 327 9.6 12.2 0.00 0.00 0.00 38 1015.2
20260906090200 73 285 11.3 13.9 0.00 0.00 0.00 38 1015.2
20260906085700 73 339 10.4 13.0 0.00 0.00 0.00 37 1015.2
20260906085201 73 311 13.0 19.1 0.00 0.00 0.00 37 1015.2
20260906084700 73 18 7.8 9.6 0.00 0.00 0.00 37 1015.2
20260906084200 72 278 7.8 9.6 0.00 0.00 0.00 36 1015.2
20260906083700 73 318 13.0 14.8 0.00 0.00 0.00 39 1015.2
20260906083200 72 298 3.5 4.3 0.00 0.00 0.00 38 1015.2
20260906082700 73 321 13.0 14.8 0.00 0.00 0.00 37 1015.2
20260906082200 73 251 0.9 1.7 0.00 0.00 0.00 39 1015.2
20260906081700 72 323 6.1 7.0 0.00 0.00 0.00 43 1014.9
20260906081200 73 315 4.3 7.8 0.00 0.00 0.00 42 1015.2
20260906080700 71 288 7.8 11.3 0.00 0.00 0.00 43 1015.2
20260906080201 72 299 7.8 11.3 0.00 0.00 0.00 42 1015.2
20260906075700 72 327 3.5 5.2 0.00 0.00 0.00 43 1015.2
20260906075201 71 315 8.7 13.0 0.00 0.00 0.00 40 1015.2
20260906074700 72 327 5.2 6.1 0.00 0.00 0.00 41 1015.2
20260906074200 71 25 7.8 13.0 0.00 0.00 0.00 42 1015.2
20260906073700 71 317 6.1 7.0 0.00 0.00 0.00 41 1015.2
20260906073200 72 331 10.4 13.0 0.00 0.00 0.00 39 1015.2
20260906072700 72 286 6.1 6.1 0.00 0.00 0.00 40 1015.2
20260906072202 73 329 4.3 7.0 0.00 0.00 0.00 41 1015.2
20260906071700 74 317 5.2 7.8 0.00 0.00 0.00 38 1015.2
20260906071200 73 281 1.7 1.7 0.00 0.00 0.00 36 1015.2
20260906070700 72 62 4.3 5.2 0.00 0.00 0.00 37 1015.2
20260906070200 72 328 2.6 5.2 0.00 0.00 0.00 37 1014.9
20260906065700 72 348 1.7 4.3 0.00 0.00 0.00 37 1015.2
20260906065201 73 351 4.3 5.2 0.00 0.00 0.00 35 1015.2
20260906064703 73 321 3.5 4.3 0.00 0.00 0.00 35 1015.2
20260906064200 72 139 1.7 2.6 0.00 0.00 0.00 39 1015.2
20260906063700 73 27 6.1 7.0 0.00 0.00 0.00 39 1014.9
20260906063200 72 303 1.7 1.7 0.00 0.00 0.00 41 1015.2
20260906062700 72 66 0.0 0.9 0.00 0.00 0.00 40 1015.2
20260906062200 73 126 2.6 4.3 0.00 0.00 0.00 40 1014.9
20260906061700 72 263 0.0 0.0 0.00 0.00 0.00 41 1014.9
20260906061200 71 110 2.6 4.3 0.00 0.00 0.00 42 1015.2
20260906060700 71 340 1.7 2.6 0.00 0.00 0.00 41 1014.9
20260906060203 69 350 5.2 6.1 0.00 0.00 0.00 42 1014.9
20260906055700 70 13 2.6 2.6 0.00 0.00 0.00 42 1014.9
20260906055200 70 69 2.6 2.6 0.00 0.00 0.00 42 1014.9
20260906054700 69 352 1.7 1.7 0.00 0.00 0.00 42 1014.6
20260906054200 70 9 7.0 7.0 0.00 0.00 0.00 41 1014.9
20260906053700 69 115 0.9 0.9 0.00 0.00 0.00 42 1014.9
20260906053200 69 324 2.6 2.6 0.00 0.00 0.00 42 1014.6
20260906052700 69 322 4.3 6.1 0.00 0.00 0.00 39 1014.6
20260906052201 68 357 1.7 1.7 0.00 0.00 0.00 40 1014.9
20260906051700 69 357 2.6 4.3 0.00 0.00 0.00 39 1014.9
20260906051200 69 351 1.7 2.6 0.00 0.00 0.00 39 1014.9
20260906050700 68 353 4.3 5.2 0.00 0.00 0.00 38 1014.6
20260906050201 68 22 4.3 7.0 0.00 0.00 0.00 38 1014.9
20260906045700 68 351 5.2 7.0 0.00 0.00 0.00 38 1014.9
20260906045200 68 327 9.6 12.2 0.00 0.00 0.00 38 1014.9
20260906044700 68 324 7.8 8.7 0.00 0.00 0.00 37 1014.6
20260906044200 68 354 6.1 7.0 0.00 0.00 0.00 36 1014.6
20260906043701 68 351 3.5 4.3 0.00 0.00 0.00 36 1014.6
20260906043200 68 8 3.5 4.3 0.00 0.00 0.00 35 1014.2
20260906042700 68 9 7.0 7.8 0.00 0.00 0.00 35 1014.6
20260906042200 68 347 6.1 7.0 0.00 0.00 0.00 35 1014.6
20260906041700 67 326 2.6 2.6 0.00 0.00 0.00 35 1014.6
20260906041201 66 54 2.6 2.6 0.00 0.00 0.00 36 1014.6
20260906040700 66 37 3.5 4.3 0.00 0.00 0.00 36 1014.6
20260906040200 65 110 4.3 5.2 0.00 0.00 0.00 36 1014.6
20260906035700 66 20 4.3 4.3 0.00 0.00 0.00 36 1014.6
20260906035200 66 21 5.2 6.1 0.00 0.00 0.00 36 1014.6
20260906034700 66 352 4.3 6.1 0.00 0.00 0.00 36 1014.6
20260906034200 65 350 6.1 7.0 0.00 0.00 0.00 36 1014.2
20260906033700 65 26 6.1 6.1 0.00 0.00 0.00 36 1014.6
20260906033200 65 13 4.3 5.2 0.00 0.00 0.00 36 1014.2
20260906032701 66 25 7.0 7.0 0.00 0.00 0.00 36 1014.2
20260906032200 66 355 7.8 8.7 0.00 0.00 0.00 36 1014.2
20260906031700 66 344 3.5 4.3 0.00 0.00 0.00 36 1014.2
20260906031201 65 356 7.8 11.3 0.00 0.00 0.00 36 1014.2
20260906030700 66 342 5.2 7.0 0.00 0.00 0.00 36 1014.2
20260906030159 65 345 10.4 13.9 0.00 0.00 0.00 36 1014.2
20260906025700 65 324 6.1 7.0 0.00 0.00 0.00 37 1014.2
20260906025200 65 345 4.3 5.2 0.00 0.00 0.00 38 1014.2
20260906024700 65 342 7.0 8.7 0.00 0.00 0.00 37 1014.2
20260906024201 65 8 7.0 7.8 0.00 0.00 0.00 37 1014.2
20260906023700 65 354 7.0 8.7 0.00 0.00 0.00 37 1014.2
20260906023200 65 336 4.3 6.1 0.00 0.00 0.00 37 1014.2
20260906022701 66 330 4.3 6.1 0.00 0.00 0.00 37 1014.2
20260906022200 66 337 9.6 11.3 0.00 0.00 0.00 35 1014.2
20260906021700 66 327 10.4 11.3 0.00 0.00 0.00 33 1014.2
20260906021200 66 339 7.8 8.7 0.00 0.00 0.00 36 1014.2
20260906020700 66 333 6.1 7.0 0.00 0.00 0.00 34 1014.6
20260906020200 66 328 5.2 6.1 0.00 0.00 0.00 37 1014.2
20260906015700 66 349 6.1 7.0 0.00 0.00 0.00 34 1014.2
20260906015201 66 346 8.7 8.7 0.00 0.00 0.00 35 1014.2
20260906014700 66 339 7.0 11.3 0.00 0.00 0.00 37 1014.2
20260906014200 65 15 7.8 7.8 0.00 0.00 0.00 36 1014.2
20260906013700 66 16 8.7 8.7 0.00 0.00 0.00 36 1014.2
20260906013200 65 324 8.7 9.6 0.00 0.00 0.00 36 1014.2
20260906012700 65 355 3.5 4.3 0.00 0.00 0.00 41 1014.2
20260906012201 65 18 6.1 7.8 0.00 0.00 0.00 41 1014.2
20260906011701 64 20 7.0 8.7 0.00 0.00 0.00 42 1014.2
20260906011200 64 359 3.5 4.3 0.00 0.00 0.00 43 1014.2
20260906010701 65 22 6.1 6.1 0.00 0.00 0.00 43 1014.6
20260906010200 65 34 3.5 5.2 0.00 0.00 0.00 43 1014.2
20260906005702 65 360 4.3 5.2 0.00 0.00 0.00 43 1014.2
20260906005200 65 3 5.2 7.0 0.00 0.00 0.00 43 1014.2
20260906004700 65 45 2.6 4.3 0.00 0.00 0.00 44 1014.2
20260906004159 65 332 5.2 7.0 0.00 0.00 0.00 45 1014.2
20260906003700 65 341 6.1 7.8 0.00 0.00 0.00 46 1014.2
20260906003200 65 1 6.1 7.0 0.00 0.00 0.00 48 1014.2
20260906002700 65 330 7.8 8.7 0.00 0.00 0.00 49 1014.2
20260906002201 65 318 7.8 9.6 0.00 0.00 0.00 47 1014.2
20260906001700 65 326 8.7 11.3 0.00 0.00 0.00 50 1014.2
20260906001201 65 20 7.8 8.7 0.00 0.00 0.00 51 1014.2
20260906000700 65 15 7.8 8.7 0.00 0.00 0.00 50 1014.2
20260906000200 65 359 5.2 6.1 0.00 0.00 0.00 53 1014.2
20260905235702 64 340 7.0 7.8 0.00 0.00 0.00 54 1014.2
20260905235200 64 327 6.1 7.8 0.00 0.00 0.00 55 1014.2
20260905234700 64 338 7.8 8.7 0.00 0.00 0.00 56 1014.6
20260905234200 64 338 6.1 7.0 0.00 0.00 0.00 57 1014.2
20260905233700 65 333 7.8 7.8 0.00 0.00 0.00 58 1014.2
20260905233200 65 334 7.0 7.8 0.00 0.00 0.00 57 1014.2
20260905232700 65 320 7.0 7.8 0.00 0.00 0.00 58 1014.2
20260905232200 65 340 7.0 7.8 0.00 0.00 0.00 60 1014.2
20260905231700 65 339 11.3 13.9 0.00 0.00 0.00 59 1014.2
20260905231200 65 356 6.1 9.6 0.00 0.00 0.00 59 1014.2
20260905230700 65 329 7.0 9.6 0.00 0.00 0.00 59 1014.2
20260905230200 65 359 7.8 13.0 0.00 0.00 0.00 59 1014.2
20260905225700 65 358 9.6 11.3 0.00 0.00 0.00 60 1014.2
20260905225200 66 333 7.8 7.8 0.00 0.00 0.00 59 1014.2
20260905224700 66 335 8.7 9.6 0.00 0.00 0.00 59 1014.2
20260905224200 66 340 7.8 8.7 0.00 0.00 0.00 62 1014.2
20260905223701 66 9 7.0 8.7 0.00 0.00 0.00 63 1014.2
20260905223201 66 358 8.7 12.2 0.00 0.00 0.00 63 1014.2
20260905222701 66 349 7.0 7.8 0.00 0.00 0.00 63 1014.6
20260905222200 66 340 7.0 7.8 0.00 0.00 0.00 65 1014.6
20260905221700 66 11 8.7 9.6 0.00 0.00 0.00 65 1014.6
20260905221200 66 350 7.8 9.6 0.00 0.00 0.00 65 1014.6
20260905220700 66 349 9.6 12.2 0.00 0.00 0.00 65 1014.6
20260905220201 66 336 8.7 9.6 0.00 0.00 0.00 65 1014.6
20260905215700 67 338 7.8 8.7 0.00 0.00 0.00 65 1014.6
20260905215200 67 336 9.6 11.3 0.00 0.00 0.00 64 1014.9
20260905214701 67 2 7.8 8.7 0.00 0.00 0.00 63 1014.6
20260905214200 67 332 7.8 8.7 0.00 0.00 0.00 64 1014.9
20260905213700 67 351 9.6 9.6 0.00 0.00 0.00 64 1014.6
20260905213200 67 341 8.7 11.3 0.00 0.00 0.00 64 1014.9
20260905212732 67 21 6.1 7.0 0.00 0.00 0.00 56 1014.9
20260905212200 67 25 7.0 7.8 0.00 0.00 0.00 44 1014.9
20260905211700 67 28 8.7 9.6 0.00 0.00 0.00 40 1014.9
20260905211202 67 4 6.1 7.0 0.00 0.00 0.00 42 1014.9
20260905210700 67 21 8.7 9.6 0.00 0.00 0.00 47 1014.9
20260905210200 67 19 7.8 8.7 0.00 0.00 0.00 46 1014.9
20260905205700 67 23 5.2 7.0 0.00 0.00 0.00 51 1014.9
20260905205201 67 12 6.1 7.0 0.00 0.00 0.00 47 1014.9
20260905204700 67 23 6.1 7.0 0.00 0.00 0.00 46 1014.9
20260905204200 67 11 5.2 6.1 0.00 0.00 0.00 47 1015.2
20260905203701 67 15 7.0 7.0 0.00 0.00 0.00 46 1015.2
20260905203201 67 38 7.0 7.0 0.00 0.00 0.00 49 1015.2
20260905202701 67 40 9.6 11.3 0.00 0.00 0.00 50 1014.9
20260905202200 67 1 9.6 9.6 0.00 0.00 0.00 49 1015.2
20260905201700 67 81 6.1 7.0 0.00 0.00 0.00 47 1015.2
20260905201201 68 28 7.8 7.8 0.00 0.00 0.00 53 1015.2
20260905200700 68 354 5.2 5.2 0.00 0.00 0.00 64 1015.2
20260905200201 68 84 4.3 5.2 0.00 0.00 0.00 61 1015.2
20260905195700 68 10 3.5 4.3 0.00 0.00 0.00 64 1015.2
20260905195200 67 24 6.1 7.0 0.00 0.00 0.00 65 1015.2
20260905194701 67 346 7.0 7.8 0.00 0.00 0.00 66 1015.2
20260905194200 68 327 7.0 7.8 0.00 0.00 0.00 65 1015.2
20260905193705 68 305 7.8 8.7 0.00 0.00 0.00 65 1015.2
20260905193200 68 10 7.8 8.7 0.00 0.00 0.00 65 1015.2
20260905192700 68 342 8.7 9.6 0.00 0.00 0.00 64 1015.2
20260905192200 68 325 7.8 8.7 0.00 0.00 0.00 64 1015.2
20260905191700 68 15 7.8 8.7 0.00 0.00 0.00 64 1015.2
20260905191200 68 353 4.3 6.1 0.00 0.00 0.00 64 1015.2
20260905190700 68 344 11.3 13.0 0.00 0.00 0.00 64 1015.2
20260905190200 68 345 7.8 8.7 0.00 0.00 0.00 62 1015.2
20260905185700 68 351 7.8 9.6 0.00 0.00 0.00 62 1015.2
20260905185200 68 341 7.0 7.8 0.00 0.00 0.00 63 1015.2
20260905184700 68 350 8.7 9.6 0.00 0.00 0.00 63 1015.2
20260905184201 68 334 8.7 8.7 0.00 0.00 0.00 61 1015.2
20260905183700 69 348 8.7 9.6 0.00 0.00 0.00 60 1015.6
20260905183200 69 330 7.8 8.7 0.00 0.00 0.00 58 1015.2
20260905182700 69 326 7.8 7.8 0.00 0.00 0.00 58 1015.2
20260905182200 69 331 9.6 11.3 0.00 0.00 0.00 57 1015.2
20260905181700 69 349 8.7 11.3 0.00 0.00 0.00 57 1015.2
20260905181202 69 353 10.4 12.2 0.00 0.00 0.00 57 1015.2
20260905180700 69 345 9.6 12.2 0.00 0.00 0.00 58 1015.2
20260905180200 69 336 5.2 6.1 0.00 0.00 0.00 57 1015.2
20260905175700 69 320 7.0 7.8 0.00 0.00 0.00 57 1015.2
20260905175200 69 323 6.1 7.8 0.00 0.00 0.00 57 1015.2
20260905174700 69 335 5.2 6.1 0.00 0.00 0.00 57 1015.6
20260905174200 69 346 7.0 8.7 0.00 0.00 0.00 57 1015.2
20260905173700 69 353 6.1 7.0 0.00 0.00 0.00 57 1015.2
20260905173200 69 353 7.8 8.7 0.00 0.00 0.00 56 1015.2
20260905172700 69 341 6.1 7.0 0.00 0.00 0.00 56 1015.2
20260905172200 69 342 6.1 7.0 0.00 0.00 0.00 55 1015.2
20260905171700 69 339 4.3 5.2 0.00 0.00 0.00 55 1015.2
20260905171200 69 310 4.3 5.2 0.00 0.00 0.00 55 1015.2
20260905170701 69 330 7.0 7.8 0.00 0.00 0.00 54 1015.2
20260905170200 69 355 7.0 7.8 0.00 0.00 0.00 55 1014.9
20260905165700 69 330 7.8 7.8 0.00 0.00 0.00 55 1014.9
20260905165200 70 343 7.8 9.6 0.00 0.00 0.00 55 1014.6
20260905164701 70 325 6.1 7.0 0.00 0.00 0.00 55 1014.9
20260905164200 70 312 7.8 7.8 0.00 0.00 0.00 54 1014.9
20260905163700 70 319 6.1 7.0 0.00 0.00 0.00 55 1014.9
20260905163201 70 325 7.8 8.7 0.00 0.00 0.00 55 1014.6
20260905162701 70 315 7.0 7.8 0.00 0.00 0.00 55 1014.6
20260905162202 70 329 8.7 9.6 0.00 0.00 0.00 55 1014.6
20260905161702 70 318 5.2 7.0 0.00 0.00 0.00 55 1014.9
20260905161200 70 292 8.7 8.7 0.00 0.00 0.00 54 1014.6
20260905160700 70 317 7.0 7.0 0.00 0.00 0.00 54 1014.6
20260905160201 70 282 5.2 7.0 0.00 0.00 0.00 54 1014.6
20260905155700 71 328 7.0 7.0 0.00 0.00 0.00 54 1014.6
20260905155200 71 318 6.1 7.0 0.00 0.00 0.00 53 1014.9
20260905154700 71 342 5.2 7.0 0.00 0.00 0.00 52 1014.6
20260905154200 71 310 4.3 6.1 0.00 0.00 0.00 52 1014.6
20260905153700 71 295 6.1 6.1 0.00 0.00 0.00 53 1014.9
20260905153200 72 319 2.6 4.3 0.00 0.00 0.00 52 1014.6
20260905152701 72 286 5.2 6.1 0.00 0.00 0.00 51 1014.6
20260905152200 72 266 4.3 4.3 0.00 0.00 0.00 51 1014.6
20260905151700 72 312 4.3 7.0 0.00 0.00 0.00 51 1014.6
20260905151200 73 329 4.3 5.2 0.00 0.00 0.00 50 1014.6
20260905150700 74 262 7.0 7.8 0.00 0.00 0.00 49 1014.6
20260905150200 74 316 3.5 6.1 0.00 0.00 0.00 48 1014.6
20260905145700 74 261 7.8 8.7 0.00 0.00 0.00 47 1014.6
20260905145201 74 219 6.1 7.8 0.00 0.00 0.00 47 1014.6
20260905144701 74 290 5.2 7.0 0.00 0.00 0.00 47 1014.6
20260905144200 75 285 2.6 2.6 0.00 0.00 0.00 46 1014.6
20260905143701 75 283 7.8 12.2 0.00 0.00 0.00 45 1014.6
20260905143200 76 247 7.0 9.6 0.00 0.00 0.00 45 1014.6
20260905142702 76 316 3.5 5.2 0.00 0.00 0.00 43 1014.6
20260905142202 76 294 8.7 11.3 0.00 0.00 0.00 43 1014.6
20260905141701 76 267 6.1 12.2 0.00 0.00 0.00 42 1014.6
20260905141200 77 269 5.2 7.8 0.00 0.00 0.00 43 1014.6
20260905140700 77 291 5.2 7.8 0.00 0.00 0.00 42 1014.2
20260905140200 78 207 7.8 11.3 0.00 0.00 0.00 41 1014.2
20260905135700 80 272 3.5 6.1 0.00 0.00 0.00 39 1014.2
20260905135200 79 328 3.5 6.1 0.00 0.00 0.00 35 1014.2
20260905134700 80 214 5.2 7.8 0.00 0.00 0.00 38 1014.6
20260905134200 82 185 4.3 5.2 0.00 0.00 0.00 37 1014.2
20260905133700 83 62 2.6 2.6 0.00 0.00 0.00 19 1014.6
20260905133200 82 202 3.5 5.2 0.00 0.00 0.00 20 1014.2
20260905132700 82 134 3.5 4.3 0.00 0.00 0.00 20 1014.6
20260905132202 82 184 6.1 9.6 0.00 0.00 0.00 20 1014.6
20260905131702 83 260 1.7 2.6 0.00 0.00 0.00 20 1014.6
20260905131200 82 246 0.9 0.9 0.00 0.00 0.00 20 1014.2
20260905130700 82 206 5.2 7.8 0.00 0.00 0.00 21 1014.6
20260905130206 82 152 3.5 4.3 0.00 0.00 0.00 21 1014.6
20260905125700 84 125 1.7 1.7 0.00 0.00 0.00 19 1014.6
20260905125201 83 280 2.6 2.6 0.00 0.00 0.00 19 1014.6
20260905124700 82 137 5.2 7.0 0.00 0.00 0.00 19 1014.6
20260905124200 83 150 3.5 4.3 0.00 0.00 0.00 20 1014.6
20260905123700 82 194 2.6 4.3 0.00 0.00 0.00 19 1014.6